Showing default

IRIDIUM 133, 42955

Orbit data source: Space-Track

IRIDIUM 133, 42955 is a payload satellite owned by Iridium (US) in LEO that was launched on Mon, 09 Oct 2017 UTC via an FALCON 9 launch vehicle from the Air Force Western Test Range (AFWTR). Payload-class satellites include a variety of spacecraft equipped with specific instruments for various scientific and technological missions. These include communications satellites like Starlink; space stations such as the ISS; scientific satellites like the Hubble; Earth observation satellites from companies like Planet Labs, Umbra, and HawkEye 360; GPS; miniature CubeSats for education and research; and military/defense satellites.

Loading next visibility...
Identifier
42955, 2017-061A
Orbit
LEO
Country
Flag of USUS
Related business
Manufacturer
OATK SSG Gilbert
Mission
Operational Commercial Communications
Bus & Motor
ELITEBUS, Unknown motor
Mass
860 kg wet, 700 kg dry
Launch date (UTC)
2017-10-09 (8 years ago)
Launch vehicle
FALCON 9
Launch site
Air Force Western Test Range (AFWTR)
Object type
Payload
Rocket body
Debris
Shape & HBR
Trap Box + 2 Pan, 4.8 m
Radar Cross Section
10.154 m², Large (>1 m²)

Expand to show TLE details & history
Last TLE update: 6 hours ago

TLE from 6 hours ago
0 IRIDIUM 133
1 42955U 17061A   26038.19234640  .00000100  00000-0  28788-4 0  9996
2 42955  86.3920  79.6282 0002244  91.4830 268.6623 14.34217929436149
Epoch: 2026-02-07T04:36Z
TLE epoch observation values (Epoch: 2026-02-07T04:36:58.728Z)
Latitude
-0.00004°
Longitude
-126.9359°
Altitude
780.755 km
Speed
7.463 km/s
True Right ascension
05h 18m 30s
True Declination
0° 00' 00"
Sunlit
Object was in full shadow at epoch
Visualization orbit readout
Latitude
Unknown
Longitude
Unknown
Altitude
Unknown
Speed
Unknown
Apparent Right ascension
Unknown
Apparent Declination
Unknown
Sunlit
N/A
Visualization observer readout
Local Sidereal Time
12:36:08
Azimuth
Unknown
Elevation
Unknown
Doppler factor
Unknown
Orbital elements
Apogee altitude
776.236 km
Perigee altitude
773.026 km
Semi-major axis
7,152.768 km
Eccentricity
0.00022
Inclination
86.392°
RAAN
79.6282°
Arg. of periapsis
91.483°
True anomaly
268.63659°
Mean anomaly
268.6623°
Eccentric anomaly
268.64945°
Mean motion
3.58783 °/min
Orbital period
100.34 mins
BSTAR
0.000028788
Loading maneuver chart data...
Computing Atmospheric mass density...
Loading historical data...
Loading historical data...
Loading historical data...
Loading historical data...
Loading historical data...
Loading historical data...
Loading historical data...

Documentation

Showing up to 5 results
|